1st Responders/1st Detectors/Storm Spotters Weather Summary for Harrison County, KY

Forecast Maps


Reg. NEXRAD Animation


National Fire Danger: Day 1 & 2 Map

Current NWS Watch/Warnings

SPC Convective Day 1 Outlook


Day 2 Outlook

(Click images to enlarge|Page will refresh every 5 minutes)
UK Ag. Weather Center Desktop Severe Weather Service[HERE]
Harrison County, KY Hazardous Weather Outlook Webcast
(9 AM to 9 PM Mon-Fri)
[Fast]
[Dial-up]


UKAWC 1st Detectors/1st Responders Precision Weather Forecast For HARRISON County, Kentucky
(based on the NWS County Digital Forecast)

ISSUED AT 05:00 UTC ON WEDNESDAY JUL 15 2020
DAY WEDNESDAY
EDT 3HR 2A 3A 4A 5A 6A 7A 8A 9A 10A 11A NOON 1P 2P 3P 4P 5P 6P 7P
MAX/MIN -- -- -- -- -- -- 63° -- -- -- -- -- -- -- -- -- -- 92°
TEMP 68° 67° 65° 65° 65° 65° 67° 72° 79° 85° 88° 90° 92° 92° 92° 92° 92° 90°
SKY COVER 13% 16% 14% 13% 14% 14% 10% 7% 11% 9% 9% 9% 9% 9% 9% 9% 15% 20%
Clouds
DEW PT 63° 63° 61° 61° 61° 61° 63° 63° 65° 65° 65° 65° 65° 65° 65° 65° 65° 67°
RH 81% 86% 87% 90% 90% 89% 84% 73% 64% 53% 45% 42% 41% 39% 39% 40% 41% 47%
POP 12HR -- -- -- -- -- -- 0% -- -- -- -- -- -- -- -- -- -- --
RAIN/SNOW (liq.equ) 0.00in -- -- -- -- -- 0.00in -- -- -- -- -- 0.00in -- -- -- -- --
SNOWFALL 0in -- -- -- -- -- 0in -- -- -- -- -- 0in -- -- -- -- --
WIND SPEED(MPH) 1 1 1 1 1 1 0 1 2 5 5 5 5 6 6 7 7 6
WIND Gust(MPH) 2 2 1 1 1 1 0 2 6 7 7 7 7 8 9 9 8 8
WIND DIR SE SE E SE SE SE SE SE SE S S S S S S S S S
DEW Mod Dew Mod Dew Mod Dew Mod Dew Mod Dew Mod Dew Mod Dew Lgt Dew -- -- -- -- -- -- -- -- -- --
HeatIndex 68 67 65 65 65 65 67 72 79 87 90 93 94 95 95 95 94 93
Rain Showers -- -- -- -- -- -- -- -- -- -- -- -- -- -- -- -- -- --
Thunder Storm -- -- -- -- -- -- -- -- -- -- -- -- -- -- -- -- -- --
Fog -- -- Patchy Patchy Patchy Patchy -- -- -- -- -- -- -- -- -- -- -- --
WIND CHILL -- -- -- -- -- -- -- -- -- -- -- -- -- -- -- -- -- --
SPRAY COND
DRY COND
LIVESTOCK HEATSTRESS 67.04 66.37 64.56 64.66 64.66 64.62 66.28 70.04 75.00 78.23 79.17 80.05 81.23 80.86 80.86 81.04 81.23 80.91



DAY THURSDAY FRIDAY SATURDAY SUNDAY MONDAY TUESDAY
EDT 6HR 8P 9P 10P 11P MIDN 1A 2A 3A 4A 5A 6A 7A 8A 9A 10A 11A NOON 1P 2P 5P 8P 11P 2A 5A 8A 11A 2P 5P 8P 2A 8A 2P 8P 2A 8A 2P 8P 2A 8A 2P 8P 2A 8A 2P 8P
MAX/MIN -- -- -- -- -- -- -- -- -- -- -- -- 70° -- -- -- -- -- -- 90° -- -- -- -- 70° -- -- 88° -- -- 70° 90° -- -- 70° 92° -- -- 72° 94° -- -- 72° 92° --
TEMP 83° 81° 79° 76° 76° 74° 74° 72° 72° 70° 70° 72° 74° 77° 81° 83° 85° 86° 88° 88° 83° 76° 72° 72° 72° 79° 86° 88° 83° 74° 74° 88° 83° 74° 74° 92° 83° 76° 74° 94° 85° 76° 74° 92° 83°
SKY COVER 25% 23% 21% 19% 28% 36% 45% 44% 44% 43% 50% 57% 63% 65% 69% 71% 71% 70% 69% 70% 61% 58% 61% 64% 70% 61% 61% 64% 61% 53% 58% 58% 50% 51% 51% 51% 25% 24% 51% 53% 51% 51% 51% 51% 51%
Clouds
DEW PT 67° 67° 67° 65° 67° 67° 65° 67° 67° 67° 67° 67° 68° 70° 70° 70° 72° 72° 72° 72° 72° 72° 72° 72° 72° 74° 74° 74° 74° 72° 72° 74° 74° 72° 72° 72° 72° 70° 72° 72° 72° 70° 72° 72° 72°
RH 57% 60% 66% 66% 75% 79% 73% 84% 84% 87% 86% 87% 81% 76% 69% 66% 64% 63% 61% 57% 69% 87% 96% 100% 99% 85% 65% 61% 74% 96% 96% 61% 72% 90% 97% 52% 67% 84% 89% 49% 65% 81% 90% 50% 69%
POP 12HR 2% -- -- -- -- -- -- -- -- -- -- -- 10% -- -- -- -- -- -- -- 44% -- -- -- 54% -- -- -- 57% -- 20% -- 51% -- 16% -- 32% -- 14% -- 37% -- 21% -- 40%
RAIN/SNOW (liq.equ) 0.00in -- -- -- -- -- 0.00in -- -- -- -- -- 0.00in -- -- -- -- -- 0.04in -- 0.16in -- 0.07in -- 0.16in -- 0.19in -- 0.06in -- -- -- -- -- -- -- -- -- -- -- -- -- -- -- --
SNOWFALL 0in -- -- -- -- -- 0in -- -- -- -- -- 0in -- -- -- -- -- 0in -- 0in -- 0in -- 0in -- 0in -- 0in -- -- -- -- -- -- -- -- -- -- -- -- -- -- -- --
WIND SPEED(MPH) 5 5 5 5 5 5 5 5 5 5 6 6 5 6 7 7 8 8 8 7 2 1 1 1 1 2 5 5 1 1 1 6 2 2 2 7 5 5 5 7 5 2 2 7 2
WIND DIR S S S S S S S S S S S S S SW SW SW SW SW SW SW SW SW SW SW SW SW SW SW SW S S SW SW S SW SW SW SW SW SW SW SW SW W SW
HeatIndex 86 84 79 76 76 74 74 72 72 70 70 72 74 77 84 87 90 94 95 96 88 76 72 72 72 79 95 98 89 74 74 98 91 74 74 99 89 76 74 102 90 76 74 101 90
Rain Showers -- -- -- -- -- -- -- -- -- -- -- -- Chance Chance Chance Chance Chance Chance Chance Chance Chance Chance Chance Chance Likely Likely Likely Likely Slight Chance Slight Chance Chance Chance -- Slight Chance Chance Chance -- -- Chance Chance Slight Chance Slight Chance Chance Chance Slight Chance
Thunder Storm -- -- -- -- -- -- -- -- -- -- -- -- Chance -- -- -- -- -- Slight Chance Chance Slight Chance Slight Chance Slight Chance Slight Chance -- -- Chance Chance Slight Chance Slight Chance Chance Chance -- Slight Chance Chance Chance -- -- Chance Chance Slight Chance Slight Chance Chance Chance Slight Chance
Fog -- -- -- -- -- -- -- -- -- -- -- -- -- -- -- -- -- -- -- -- -- -- -- -- -- -- -- -- -- -- -- -- -- -- -- -- -- -- -- -- -- -- -- -- --
WIND CHILL -- -- -- -- -- -- -- -- -- -- -- -- -- -- -- -- -- -- -- -- -- -- -- -- -- -- -- -- -- -- -- -- -- -- -- -- -- -- -- -- -- -- -- -- --
SPRAY COND
DRY COND
LIVESTOCK HEATSTRESS 77.28 76.12 75.22 72.78 73.64 72.24 71.74 70.84 70.84 69.20 69.14 71.06 72.41 74.60 77.21 78.47 79.81 80.46 81.74 81.09 78.87 74.77 71.71 72.00 71.93 77.33 80.76 81.74 79.54 73.67 73.67 81.74 79.27 73.16 73.75 83.24 78.61 74.49 73.08 84.13 79.96 74.20 73.16 82.87 78.87

Click on individual weather variable above in left-hand column (ie., TEMP, RH, QPF 12HR) to view state forecast maps






NWS 48 Hr. Forecast Maps,

Regional Hourly Observations For HARRISON County, Kentucky
Issued at 100 AM EDT WED JUL 15 2020
NORTHEAST KENTUCKY
  
CITY           SKY/WX    TMP DP  RH WIND       PRES   REMARKS
LEXINGTON      CLEAR     68  62  81 SE3       30.08S                  
COVINGTON      PTCLDY    73  61  65 CALM      30.07R                  
FRANKFORT      CLEAR     67  63  87 N3        30.07R                  


Current NOWCAST not available:
Nowcasts are not issued routinely during fair weather. Only when
precipitation or other significant weather is occuring in this county will these
forecasts be issued. Currently, there is no short term forecast in effect.


Fire Weather Forecast For HARRISON County, KY
Provided by the National Weather Service:

Issued at: Wed Jul 15 01:05:01 EDT 2020


                      Today        Tonight      Wed          

CLOUD COVER           Mclear       Clear        Mclear       
PRECIP TYPE           None         None         None         
CHANCE PRECIP (%)     0            0            0            
TEMP (24H TREND)      87 (+3)      63 (+1)      93           
RH % (24H TREND)      40 (-7)      92 (-5)      38           
20FTWND-VAL/AM(MPH)   Lgt/Var                   Lgt/Var      
20FTWND-RDG/PM(MPH)   Lgt/Var      Lgt/Var      Lgt/Var      
PRECIP AMOUNT         0.00         0.00         0.00         
MIXING HGT(FT-AGL/MSL)6363                      8361         
TRANSPORT WND (MPH)   SE  5                     S 10         
VENT RATE (KT-FT)     28245                     75210        
DISPERSION            Poor                      Good         
DSI                   MOD UNSTBL   SLGT UNSTBL  MOD UNSTBL   
LAL                   1            1            1            
HAINES INDEX          2            2            2            
ADI EARLY             19 GEN POOR  2 VERY POOR  31 FAIR      
ADI LATE              20 GEN POOR  2 VERY POOR  55 GEN GOOD  
MAX LVORI EARLY       7            4            6            
MAX LVORI LATE        2            6            1            

REMARKS...ADI IS ATMOSPHERIC DISPERSION INDEX BY LAVDAS.        
LVORI IS LOW VISIBILITY OCCURRENCE RISK INDEX.

.THURSDAY...Partly cloudy. A 40 percent chance of showers and
thunderstorms. Lows around 70. Highs in the lower 90s. South
winds around 5 mph. 
.FRIDAY...Mostly cloudy. Showers likely and chance of
thunderstorms. Lows in the lower 70s. Highs around 90. Light
winds. 
.SATURDAY...Partly cloudy. Showers likely and chance of
thunderstorms. Lows around 70. Highs around 90. Southwest winds
up to 5 mph. 
.SUNDAY...Partly cloudy. A 40 percent chance of showers and
thunderstorms. Lows in the lower 70s. Highs in the lower 90s.
Southwest winds up to 5 mph. 
.MONDAY...Partly cloudy. A 40 percent chance of showers and
thunderstorms. Lows in the lower 70s. Highs in the lower 90s.
Southwest winds up to 5 mph. 

SPC's Fire Weather Web Tool (Excellent!), SPC's Fire Weather Outlooks, NWS Fire Weather WEB, Fire Danger Class Map,
Keetch-Byram Drought Index, ROMAN Web, Haines Index ,
WFAS's 10-hr Dead Fuel Moist., WFAS's 100-hr Dead Fuel Moist., Probablity of Ignition, Visual blackness Map, Palmer Drought Index, HPC's Rainfall Forecast Maps


Hazardous Weather Outlook For HARRISON County, Kentucky
311 PM EDT Tue Jul 14 2020 /211 PM CDT Tue Jul 14 2020/

 DAY ONE  Tonight.

No hazardous weather is expected at this time.

 DAYS TWO THROUGH SEVEN  Wednesday through Monday.

Afternoon heat index values near 100 degrees are possible Thursday 
through Monday. 

A complex of storms will come close to the Ohio Valley Wednesday 
night bringing the threat of locally gusty winds and heavy rainfall.

Isolated to scattered thunderstorms will be possible each afternoon
and evening beginning on Thursday. The main threats with these 
storms will be locally gusty winds, cloud to ground lightning, and 
heavy rainfall.
 
 SPOTTER INFORMATION STATEMENT  

Spotter activation is not expected.

Latest HARRISON County, Kentucky Watches, Warnings and Advisories.
Additional Drought Info.: UKAWC Drought Page, Kentucky Drought Watch


7-Day Forecast For HARRISON County, KY

TONIGHT
Mostly clear. Lows in the mid 60s. Southeast winds up to 5 mph.

WEDNESDAY
Mostly sunny. Highs in the lower 90s. South winds up to 5 mph.

WEDNESDAY NIGHT
Partly cloudy. Lows in the lower 70s. South winds around 5 mph.

THURSDAY
Partly cloudy with a 50 percent chance of showers and thunderstorms. Highs in the lower 90s. Southwest winds 5 to 10 mph.

THURSDAY NIGHT
Partly cloudy with chance of showers and slight chance of thunderstorms. Lows in the lower 70s. Southwest winds up to 5 mph. Chance of precipitation 50 percent.

FRIDAY
Showers likely and chance of thunderstorms. Highs in the upper 80s. Chance of precipitation 60 percent.

FRIDAY NIGHT
Partly cloudy with a 20 percent chance of showers and thunderstorms. Lows in the lower 70s.

SATURDAY
Partly cloudy with a 50 percent chance of showers and thunderstorms. Highs around 90.

SATURDAY NIGHT
Partly cloudy with a 20 percent chance of showers and thunderstorms. Lows in the lower 70s.

SUNDAY
Partly cloudy with a 30 percent chance of showers and thunderstorms. Highs in the lower 90s.

SUNDAY NIGHT
Mostly clear. Lows in the lower 70s.

MONDAY
Partly cloudy with a 40 percent chance of showers and thunderstorms. Highs in the lower 90s.

MONDAY NIGHT
Partly cloudy with a 20 percent chance of showers and thunderstorms. Lows in the lower 70s.

TUESDAY
Partly cloudy with a 40 percent chance of showers and thunderstorms. Highs in the lower 90s.

Ag Weather Center, Department of Biosystems & Agricultural Engineering, University of Kentucky